Terminal Aerodrome Forecast
Issued by NWS Twin Cities, MN

Home | Current Version | Previous Version | Text Only | Print | Product List | Glossary Off
Versions: 1 2 3 4 5 6 7 8 9 10 11 12 13 14 15 16 17 18 19 20 21 22 23 24 25 26 27 28 29 30

000
FTUS43 KMPX 311503 AAC
TAFMSP
TAF AMD
KMSP 311503Z 3115/0118 02008KT P6SM OVC020
     FM312200 03012KT P6SM SCT020
     FM010000 03014G22KT P6SM SCT020 OVC100
     FM010600 04014G20KT P6SM -SN SCT025 BKN040
     FM011500 02012G20KT P6SM SCT040=

USA.gov is the U.S. government's official web portal to all federal, state and local government web resources and services.